Flag for Pakistan Weather past 2 weeks in Rawalpindi, Pakistan

Now
90 °F

Hot.


Feels Like: 91 °F
Forecast: 67 / 93 °F
Wind: 12 mph from West

Location: Islamabad Airport

Current Time: Sep 21, 2014 at 3:20:54 PM

Latest Report: Sep 21, 2014 at 3:00 PM


Visibility: 5 mi

Pressure: 29.71 "Hg

Humidity: 43%

Dew point: 64 °F

Location of RawalpindiLocation

Historic Weather in Rawalpindi — Graph

°F

Rawalpindi temperature yesterday

Maximum temperature yesterday: 95 °F (at 1:00 PM)
Minimum temperature yesterday: 79 °F (at 3:00 AM)
Average temperature yesterday: 86 °F

Past Weeks' High & Low Weather Summary

 TemperatureHumidityPressure
High95 °F (Sep 18, 2:00 PM)100% (Sep 21, 3:00 AM)29.86 "Hg (Sep 21, 3:00 AM)
Low64 °F (Sep 21, 3:00 AM)41% (Sep 15, 3:00 PM)29.65 "Hg (Sep 6, 3:00 PM)
Average82 °F69%29.75 "Hg
* Reported Sep 6 2:00 PM — Sep 21 2:00 PM, Rawalpindi, Weather by CustomWeather, © 2014

Note: Actual official high and low records may vary slightly from our data, if they occured in-between our weather recording intervals... More about our weather records

Advertising

Rawalpindi weather history for previous 24 hours

 ConditionsComfort  
Time TempWeatherWind HumidityBarometerVisibility
2:00 PM
Sep 21
88 °FSunny.12 mph43%29.71 "Hg10 mi
1:00 PM88 °FSunny.12 mph43%29.74 "Hg10 mi
12:00 PM86 °FSunny.7 mph52%29.77 "Hg10 mi
11:00 AM84 °FPassing clouds.7 mph55%29.80 "HgN/A
10:00 AM81 °FScattered clouds.7 mph66%29.83 "HgN/A
9:00 AM77 °FPassing clouds.9 mph74%29.80 "HgN/A
8:00 AM72 °FPassing clouds.9 mph83%29.77 "HgN/A
7:30 AM68 °FPassing clouds.9 mph83%29.77 "HgN/A
7:00 AM68 °FScattered clouds.12 mph83%29.77 "Hg5 mi
6:00 AM68 °FScattered clouds.14 mph83%29.77 "Hg4 mi
5:00 AM68 °FThundershowers. Partly cloudy.21 mph94%29.77 "Hg4 mi
4:00 AM66 °FThunderstorms. Mostly cloudy.16 mph88%29.80 "Hg2 mi
3:00 AM64 °FThunderstorms. Mostly cloudy.14 mph100%29.74 "Hg2 mi
2:00 AM79 °FThunderstorms. Partly cloudy.51 mph84%29.71 "Hg1 mi
1:00 AM81 °FThundershowers. Passing clouds.12 mph79%29.74 "Hg3 mi
11:00 PM
Sep 20
81 °FThundershowers. Passing clouds.12 mph79%29.71 "Hg3 mi
6:00 PM91 °FScattered clouds.7 mph56%29.65 "Hg2 mi
4:00 PM95 °FScattered clouds.7 mph50%29.65 "Hg3 mi
3:00 PM95 °FScattered clouds.7 mph50%29.65 "Hg3 mi
Weather by CustomWeather, © 2014

See weather overviewHow to use our weather pages